Weather History for Del Rio, TX

Change the Weather History Date:

Monday, April 29, 2013

  Actual Average Record
Temperature  
Mean Temperature 75 °F 75 °F  
Max Temperature 89 °F 86 °F 103 °F (1909)
Min Temperature 61 °F 63 °F 46 °F (1908)
Degree Days  
Heating Degree Days 0 0  
Month to date heating degree days 24 24  
Since 1 July heating degree days 1009 1374  
Cooling Degree Days 10 10  
Month to date cooling degree days 222 212  
Year to date cooling degree days 409 318  
Growing Degree Days 25 (Base 50)    
Moisture  
Dew Point 55 °F    
Average Humidity 56    
Maximum Humidity 84    
Minimum Humidity 28    
Precipitation  
Precipitation 0.00 in 0.07 in 1.29 in (1961)
Month to date precipitation 0.36 1.58  
Year to date precipitation 1.75 4.32  
Sea Level Pressure  
Sea Level Pressure 29.79 in    
Wind  
Wind Speed 7 mph (ESE)    
Max Wind Speed 20 mph    
Max Gust Speed 29 mph    
Visibility 10 miles    
Events      
T = Trace of Precipitation, MM = Missing Value Source: NWS Daily Summary

Daily Weather History Graph

Daily Weather History Graph

Search for Another Location

Airport:

Trip Planner

Search our weather history database for the weather conditions in past years. The results will help you decide how hot, cold, wet, or windy it might be!

Date:

Astronomy

Apr. 29, 2013 Rise Set
Actual Time 7:03 AM CDT 8:19 PM CDT
Civil Twilight 6:38 AM CDT 8:44 PM CDT
Nautical Twilight 6:08 AM CDT 9:14 PM CDT
Astronomical Twilight 5:37 AM CDT 9:45 PM CDT
Moon No Moon Rise 10:33 AM CDT
Length of Visible Light 14h 05m
Length of Day
13h 15m
Waning Gibbous, 80% of the Moon is Illuminated
Apr 29
Waning Gibbous
May 2
Last Quarter
May 9
New
May 17
First Quarter
May 24
Full

Hourly Weather History & Observations

Time (CDT) Temp. Heat Index Dew Point Humidity Pressure Visibility Wind Dir Wind Speed Gust Speed Precip Events Conditions
12:53 AM 73.0 °F - 55.9 °F 55% 29.88 in 10.0 mi North 13.8 mph 19.6 mph N/A   Mostly Cloudy
1:53 AM 68.0 °F - 55.0 °F 63% 29.90 in 10.0 mi North 8.1 mph - N/A   Scattered Clouds
2:53 AM 66.9 °F - 55.9 °F 68% 29.87 in 10.0 mi North 6.9 mph - N/A   Partly Cloudy
3:53 AM 64.9 °F - 55.9 °F 73% 29.85 in 10.0 mi East 3.5 mph - N/A   Clear
4:53 AM 64.0 °F - 55.9 °F 75% 29.83 in 10.0 mi Calm Calm - N/A   Clear
5:53 AM 62.1 °F - 55.0 °F 78% 29.83 in 10.0 mi SSW 3.5 mph - N/A   Clear
6:53 AM 61.0 °F - 55.0 °F 81% 29.85 in 10.0 mi North 4.6 mph - N/A   Clear
7:53 AM 63.0 °F - 55.9 °F 78% 29.86 in 10.0 mi NE 3.5 mph - N/A   Clear
8:53 AM 68.0 °F - 55.9 °F 65% 29.87 in 10.0 mi NE 4.6 mph - N/A   Clear
9:53 AM 71.1 °F - 57.0 °F 61% 29.86 in 10.0 mi SE 6.9 mph - N/A   Clear
10:53 AM 73.9 °F - 57.9 °F 57% 29.86 in 10.0 mi South 6.9 mph - N/A   Scattered Clouds
11:53 AM 80.1 °F 80.6 °F 57.9 °F 47% 29.84 in 10.0 mi SSE 10.4 mph - N/A   Clear
12:53 PM 82.0 °F 81.4 °F 55.0 °F 39% 29.81 in 10.0 mi South 4.6 mph - N/A   Clear
1:53 PM 84.0 °F 82.9 °F 55.0 °F 37% 29.79 in 10.0 mi ESE 5.8 mph - N/A   Partly Cloudy
2:53 PM 84.9 °F 83.2 °F 53.1 °F 33% 29.76 in 10.0 mi SE 5.8 mph 19.6 mph N/A   Clear
3:53 PM 88.0 °F - 51.1 °F 28% 29.73 in 10.0 mi SSE 8.1 mph - N/A   Clear
4:53 PM 88.0 °F - 50.0 °F 27% 29.70 in 10.0 mi SE 11.5 mph - N/A   Clear
5:53 PM 88.0 °F - 50.0 °F 27% 29.68 in 10.0 mi ESE 4.6 mph - N/A   Clear
6:53 PM 88.0 °F - 50.0 °F 27% 29.66 in 10.0 mi SE 6.9 mph - N/A   Clear
7:21 PM 87.8 °F - 51.8 °F 29% 29.70 in 10.0 mi SE 8.1 mph - N/A   Partly Cloudy
7:53 PM 86.0 °F - 52.0 °F 31% 29.66 in 10.0 mi SE 8.1 mph - N/A   Clear
8:53 PM 82.9 °F 81.8 °F 53.1 °F 36% 29.68 in 10.0 mi ESE 9.2 mph - N/A   Clear
9:53 PM 81.0 °F 80.4 °F 53.1 °F 38% 29.70 in 10.0 mi ESE 8.1 mph - N/A   Clear
10:53 PM 79.0 °F - 59.0 °F 50% 29.74 in 10.0 mi SE 12.7 mph 24.2 mph N/A   Clear
11:53 PM 77.0 °F - 61.0 °F 58% 29.76 in 10.0 mi ESE 13.8 mph - N/A   Clear